Weather History for Courtland, AL

Change the Weather History Date:

Tuesday, April 2, 2013

  Actual Average (KMSL) Record (KMSL)
Temperature  
Mean Temperature 46 °F 58 °F  
Max Temperature 51 °F 70 °F 86 °F (1967)
Min Temperature 42 °F 46 °F 24 °F (1924)
Degree Days  
Heating Degree Days 18 8  
Month to date heating degree days 16  
Since 1 July heating degree days 2929  
Cooling Degree Days 0 1  
Month to date cooling degree days 2  
Year to date cooling degree days 15  
Moisture  
Dew Point 29 °F    
Average Humidity 50    
Maximum Humidity 71    
Minimum Humidity 35    
Precipitation  
Precipitation 0.00 in 0.15 in 2.50 in (1920)
Month to date precipitation 0.31  
Year to date precipitation 14.34  
Snow  
Snow 0.00 in - - ()
Month to date snowfall  
Since 1 July snowfall  
Snow Depth -    
Sea Level Pressure  
Sea Level Pressure 30.21 in    
Wind  
Wind Speed 6 mph (NE)    
Max Wind Speed 13 mph    
Max Gust Speed 17 mph    
Visibility 10 miles    
Events      
T = Trace of Precipitation, MM = Missing Value Source: NWS Daily Summary

Daily Weather History Graph

Daily Weather History Graph

Search for Another Location

Airport:

Trip Planner

Search our weather history database for the weather conditions in past years. The results will help you decide how hot, cold, wet, or windy it might be!

Date:

Astronomy

Apr. 02, 2013 Rise Set
Actual Time 6:34 AM CDT 7:11 PM CDT
Civil Twilight 6:09 AM CDT 7:36 PM CDT
Nautical Twilight 5:39 AM CDT 8:06 PM CDT
Astronomical Twilight 5:08 AM CDT 8:37 PM CDT
Moon 1:05 AM CDT (4/2) 11:34 AM CDT (4/2)
Length of Visible Light 13h 27m
Length of Day
12h 36m
Waning Gibbous, 55% of the Moon is Illuminated
Apr 2
Waning Gibbous
Apr 2
Last Quarter
Apr 10
New
Apr 18
First Quarter
Apr 25
Full

Hourly Weather History & Observations

Time (CDT) Temp. Windchill Dew Point Humidity Pressure Visibility Wind Dir Wind Speed Gust Speed Precip Events Conditions
12:15 AM 50.0 °F - 35.6 °F 58% 30.11 in 10.0 mi NNE 4.6 mph - N/A   Clear
12:35 AM 48.2 °F - 37.4 °F 66% 30.12 in 10.0 mi Calm Calm - N/A   Clear
12:55 AM 46.4 °F 44.3 °F 37.4 °F 71% 30.13 in 10.0 mi North 4.6 mph - N/A   Clear
1:15 AM 46.4 °F 44.3 °F 37.4 °F 71% 30.13 in 10.0 mi NNE 4.6 mph - N/A   Scattered Clouds
1:35 AM 48.2 °F - 37.4 °F 66% 30.13 in 10.0 mi NE 4.6 mph - N/A   Scattered Clouds
1:55 AM 46.4 °F 45.2 °F 37.4 °F 71% 30.13 in 10.0 mi NNE 3.5 mph - N/A   Clear
2:15 AM 46.4 °F 41.9 °F 37.4 °F 71% 30.14 in 10.0 mi NE 9.2 mph - N/A   Clear
2:35 AM 48.2 °F - 35.6 °F 62% 30.14 in 10.0 mi NE 8.1 mph - N/A   Clear
2:55 AM 46.4 °F 41.9 °F 33.8 °F 62% 30.14 in 10.0 mi NE 9.2 mph - N/A   Clear
3:15 AM 46.4 °F 42.9 °F 32.0 °F 57% 30.15 in 10.0 mi NE 6.9 mph - N/A   Clear
3:35 AM 44.6 °F 40.7 °F 32.0 °F 61% 30.17 in 10.0 mi NE 6.9 mph - N/A   Clear
3:55 AM 44.6 °F 41.4 °F 32.0 °F 61% 30.18 in 10.0 mi NNE 5.8 mph - N/A   Clear
4:15 AM 44.6 °F 38.8 °F 30.2 °F 57% 30.18 in 10.0 mi NE 11.5 mph 17.3 mph N/A   Clear
4:35 AM 44.6 °F 40.2 °F 30.2 °F 57% 30.19 in 10.0 mi ENE 8.1 mph - N/A   Clear
4:55 AM 42.8 °F 39.3 °F 30.2 °F 61% 30.20 in 10.0 mi ENE 5.8 mph - N/A   Clear
5:15 AM 42.8 °F 39.3 °F 30.2 °F 61% 30.20 in 10.0 mi ENE 5.8 mph - N/A   Scattered Clouds
5:35 AM 42.8 °F 41.1 °F 30.2 °F 61% 30.21 in 10.0 mi NE 3.5 mph - N/A   Scattered Clouds
5:55 AM 42.8 °F - 28.4 °F 57% 30.22 in 10.0 mi Calm Calm - N/A   Mostly Cloudy
6:15 AM 42.8 °F 38.6 °F 28.4 °F 57% 30.21 in 10.0 mi ENE 6.9 mph - N/A   Overcast
6:35 AM 42.8 °F 38.6 °F 26.6 °F 53% 30.21 in 10.0 mi ENE 6.9 mph - N/A   Mostly Cloudy
6:55 AM 42.8 °F 39.3 °F 28.4 °F 57% 30.23 in 10.0 mi ENE 5.8 mph - N/A   Mostly Cloudy
7:15 AM 42.8 °F 38.6 °F 26.6 °F 53% 30.23 in 10.0 mi ENE 6.9 mph - N/A   Scattered Clouds
7:35 AM 42.8 °F 38.6 °F 28.4 °F 57% 30.23 in 10.0 mi NE 6.9 mph - N/A   Scattered Clouds
7:55 AM 44.6 °F 40.2 °F 26.6 °F 49% 30.24 in 10.0 mi ENE 8.1 mph - N/A   Scattered Clouds
8:15 AM 42.8 °F 36.6 °F 26.6 °F 53% 30.24 in 10.0 mi ENE 11.5 mph 17.3 mph N/A   Mostly Cloudy
8:35 AM 44.6 °F 39.2 °F 26.6 °F 49% 30.24 in 10.0 mi ENE 10.4 mph - N/A   Overcast
8:55 AM 44.6 °F 39.7 °F 28.4 °F 53% 30.26 in 10.0 mi NE 9.2 mph - N/A   Overcast
9:35 AM 44.6 °F 39.7 °F 28.4 °F 53% 30.26 in 10.0 mi ENE 9.2 mph - N/A   Overcast
9:55 AM 46.4 °F 41.1 °F 28.4 °F 50% 30.26 in 10.0 mi NNE 11.5 mph - N/A   Overcast
10:15 AM 46.4 °F 41.1 °F 28.4 °F 50% 30.27 in 10.0 mi ENE 11.5 mph - N/A   Overcast
10:35 AM 46.4 °F 41.9 °F 28.4 °F 50% 30.26 in 10.0 mi ENE 9.2 mph - N/A   Overcast
10:55 AM 48.2 °F - 26.6 °F 43% 30.26 in 10.0 mi NE 9.2 mph 17.3 mph N/A   Overcast
11:15 AM 48.2 °F - 26.6 °F 43% 30.26 in 10.0 mi ENE 8.1 mph - N/A   Mostly Cloudy
11:35 AM 50.0 °F - 28.4 °F 43% 30.26 in 10.0 mi NE 5.8 mph - N/A   Scattered Clouds
11:55 AM 51.8 °F - 28.4 °F 41% 30.26 in 10.0 mi NE 8.1 mph - N/A   Scattered Clouds
12:15 PM 51.8 °F - 28.4 °F 41% 30.25 in 10.0 mi ENE 10.4 mph - N/A   Scattered Clouds
12:35 PM 51.8 °F - 30.2 °F 44% 30.23 in 10.0 mi ENE 10.4 mph - N/A   Mostly Cloudy
12:55 PM 51.8 °F - 28.4 °F 41% 30.23 in 10.0 mi NNE 3.5 mph - N/A   Overcast
1:15 PM 51.8 °F - 28.4 °F 41% 30.23 in 10.0 mi NE 8.1 mph - N/A   Overcast
1:35 PM 51.8 °F - 28.4 °F 41% 30.23 in 10.0 mi North 8.1 mph - N/A   Overcast
1:55 PM 51.8 °F - 30.2 °F 44% 30.22 in 10.0 mi NE 5.8 mph - N/A   Overcast
2:15 PM 51.8 °F - 28.4 °F 41% 30.22 in 10.0 mi NNW 6.9 mph - N/A   Overcast
2:35 PM 51.8 °F - 28.4 °F 41% 30.22 in 10.0 mi NNW 6.9 mph - N/A   Overcast
2:55 PM 51.8 °F - 30.2 °F 44% 30.21 in 10.0 mi NNE 4.6 mph - N/A   Overcast
3:15 PM 51.8 °F - 30.2 °F 44% 30.21 in 10.0 mi NE 10.4 mph - N/A   Overcast
3:35 PM 51.8 °F - 28.4 °F 41% 30.21 in 10.0 mi North 11.5 mph - N/A   Overcast
3:55 PM 51.8 °F - 28.4 °F 41% 30.20 in 10.0 mi North 12.7 mph 16.1 mph N/A   Overcast
4:15 PM 51.8 °F - 26.6 °F 38% 30.20 in 10.0 mi North 8.1 mph - N/A   Overcast
4:35 PM 51.8 °F - 24.8 °F 35% 30.21 in 10.0 mi NNE 8.1 mph - N/A   Overcast
4:55 PM 51.8 °F - 26.6 °F 38% 30.21 in 10.0 mi North 8.1 mph - N/A   Overcast
5:15 PM 50.0 °F - 26.6 °F 40% 30.21 in 10.0 mi North 6.9 mph - N/A   Overcast
5:35 PM 51.8 °F - 28.4 °F 41% 30.21 in 10.0 mi NNE 5.8 mph - N/A   Overcast
5:55 PM 50.0 °F - 28.4 °F 43% 30.20 in 10.0 mi NE 6.9 mph - N/A   Scattered Clouds
6:15 PM 50.0 °F - 28.4 °F 43% 30.21 in 10.0 mi NE 6.9 mph - N/A   Mostly Cloudy
6:35 PM 50.0 °F - 26.6 °F 40% 30.21 in 10.0 mi NE 6.9 mph - N/A   Overcast
6:55 PM 50.0 °F - 26.6 °F 40% 30.21 in 10.0 mi NE 6.9 mph - N/A   Mostly Cloudy
7:15 PM 50.0 °F - 26.6 °F 40% 30.21 in 10.0 mi NNE 3.5 mph - N/A   Mostly Cloudy
7:35 PM 48.2 °F - 26.6 °F 43% 30.21 in 10.0 mi NE 6.9 mph - N/A   Scattered Clouds
7:55 PM 48.2 °F - 26.6 °F 43% 30.20 in 10.0 mi NNE 6.9 mph - N/A   Scattered Clouds
8:15 PM 48.2 °F - 28.4 °F 46% 30.21 in 10.0 mi NNE 3.5 mph - N/A   Mostly Cloudy
8:35 PM 46.4 °F 44.3 °F 28.4 °F 50% 30.21 in 10.0 mi NNE 4.6 mph - N/A   Mostly Cloudy
8:55 PM 46.4 °F 43.5 °F 28.4 °F 50% 30.21 in 10.0 mi North 5.8 mph - N/A   Mostly Cloudy
9:15 PM 46.4 °F 45.2 °F 28.4 °F 50% 30.23 in 10.0 mi NNE 3.5 mph - N/A   Mostly Cloudy
9:35 PM 46.4 °F 43.5 °F 28.4 °F 50% 30.23 in 10.0 mi NNE 5.8 mph - N/A   Overcast
9:55 PM 46.4 °F 43.5 °F 26.6 °F 46% 30.23 in 10.0 mi NNE 5.8 mph - N/A   Mostly Cloudy
10:15 PM 46.4 °F 44.3 °F 26.6 °F 46% 30.23 in 10.0 mi NE 4.6 mph - N/A   Scattered Clouds
10:35 PM 46.4 °F 44.3 °F 26.6 °F 46% 30.25 in 10.0 mi NNE 4.6 mph - N/A   Mostly Cloudy
11:15 PM 46.4 °F 43.5 °F 26.6 °F 46% 30.23 in 10.0 mi NE 5.8 mph - N/A   Overcast
11:35 PM 46.4 °F 42.4 °F 26.6 °F 46% 30.23 in 10.0 mi NE 8.1 mph - N/A   Overcast
11:55 PM 46.4 °F 43.5 °F 26.6 °F 46% 30.23 in 10.0 mi NE 5.8 mph - N/A   Overcast